Time,TemperatureF,DewpointF,PressureIn,WindDirection,WindDirectionDegrees,WindSpeedMPH,WindSpeedGustMPH,Humidity,HourlyPrecipIn,Conditions,Clouds,dailyrainin,SolarRadiationWatts/m^2,SoftwareType,DateUTC
2013-01-28 00:21:00,33.0,28.0,-100.00,SSW,194,6.0,18.0,82,0.00,,,-99.99,1.000000,,2013-01-28 07:21:00,
2013-01-28 00:31:00,33.0,28.0,-100.00,SSW,194,6.0,18.0,82,0.00,,,-99.99,1.000000,,2013-01-28 07:31:00,
2013-01-28 00:41:00,33.0,28.0,-100.00,SSW,194,6.0,18.0,82,0.00,,,-99.99,1.000000,,2013-01-28 07:41:00,
2013-01-28 00:51:00,33.0,28.0,-100.00,SSW,194,6.0,18.0,82,0.00,,,-99.99,1.000000,,2013-01-28 07:51:00,
2013-01-28 01:21:00,33.0,28.0,-100.00,WSW,241,5.0,16.0,80,0.00,,,0.48,1.000000,,2013-01-28 08:21:00,
2013-01-28 01:32:00,33.0,28.0,-100.00,WSW,241,5.0,16.0,80,0.00,,,0.48,1.000000,,2013-01-28 08:32:00,
2013-01-28 01:42:00,33.0,28.0,-100.00,WSW,241,5.0,16.0,80,0.00,,,0.48,1.000000,,2013-01-28 08:42:00,
2013-01-28 01:52:00,33.0,28.0,-100.00,WSW,241,5.0,16.0,80,0.00,,,0.48,1.000000,,2013-01-28 08:52:00,
2013-01-28 02:21:00,31.0,28.0,-100.00,SSW,209,4.0,11.0,89,0.00,,,0.48,1.000000,,2013-01-28 09:21:00,
2013-01-28 02:32:00,31.0,28.0,-100.00,SSW,209,4.0,11.0,89,0.00,,,0.48,1.000000,,2013-01-28 09:32:00,
2013-01-28 02:41:00,31.0,28.0,-100.00,SSW,209,4.0,11.0,89,0.00,,,0.48,1.000000,,2013-01-28 09:41:00,
2013-01-28 02:51:00,31.0,28.0,-100.00,SSW,209,4.0,11.0,89,0.00,,,0.48,1.000000,,2013-01-28 09:51:00,
2013-01-28 04:22:00,32.0,27.0,-100.00,WSW,248,5.0,14.0,82,-99.99,,,0.48,1.000000,,2013-01-28 11:22:00,
2013-01-28 04:32:00,32.0,27.0,-100.00,WSW,248,5.0,14.0,82,-99.99,,,0.48,1.000000,,2013-01-28 11:32:00,
2013-01-28 04:42:00,32.0,27.0,-100.00,WSW,248,5.0,14.0,82,-99.99,,,0.48,1.000000,,2013-01-28 11:42:00,
2013-01-28 04:52:00,32.0,27.0,-100.00,WSW,248,5.0,14.0,82,-99.99,,,0.48,1.000000,,2013-01-28 11:52:00,
2013-01-28 05:23:00,30.0,28.0,-100.00,WSW,245,2.0,15.0,94,0.00,,,0.48,1.000000,,2013-01-28 12:23:00,
2013-01-28 05:32:00,30.0,28.0,-100.00,WSW,245,2.0,15.0,94,0.00,,,0.48,1.000000,,2013-01-28 12:32:00,
2013-01-28 05:42:00,30.0,28.0,-100.00,WSW,245,2.0,15.0,94,0.00,,,0.48,1.000000,,2013-01-28 12:42:00,
2013-01-28 05:52:00,30.0,28.0,-100.00,WSW,245,2.0,15.0,94,0.00,,,0.48,1.000000,,2013-01-28 12:52:00,
2013-01-28 06:22:00,29.0,27.0,-100.00,WSW,249,5.0,15.0,94,0.00,,,0.48,1.000000,,2013-01-28 13:22:00,
2013-01-28 06:33:00,29.0,27.0,-100.00,WSW,249,5.0,15.0,94,0.00,,,0.48,1.000000,,2013-01-28 13:33:00,
2013-01-28 06:42:00,29.0,27.0,-100.00,WSW,249,5.0,15.0,94,0.00,,,0.48,1.000000,,2013-01-28 13:42:00,
2013-01-28 06:52:00,29.0,27.0,-100.00,WSW,249,5.0,15.0,94,0.00,,,0.48,1.000000,,2013-01-28 13:52:00,
2013-01-28 07:22:00,29.0,27.0,-100.00,West,263,0.0,8.0,94,0.00,,,0.48,1.000000,,2013-01-28 14:22:00,
2013-01-28 07:32:00,29.0,27.0,-100.00,West,263,0.0,8.0,94,0.00,,,0.48,1.000000,,2013-01-28 14:32:00,
2013-01-28 07:42:00,29.0,27.0,-100.00,West,263,0.0,8.0,94,0.00,,,0.48,1.000000,,2013-01-28 14:42:00,
2013-01-28 07:52:00,29.0,27.0,-100.00,West,263,0.0,8.0,94,0.00,,,0.48,1.000000,,2013-01-28 14:52:00,
2013-01-28 08:23:00,28.0,27.0,-100.00,West,268,0.0,0.0,95,0.00,,,0.48,1.000000,,2013-01-28 15:23:00,
2013-01-28 08:33:00,28.0,27.0,-100.00,West,268,0.0,0.0,95,0.00,,,0.48,1.000000,,2013-01-28 15:33:00,
2013-01-28 08:42:00,28.0,27.0,-100.00,West,268,0.0,0.0,95,0.00,,,0.48,1.000000,,2013-01-28 15:42:00,
2013-01-28 08:52:00,28.0,27.0,-100.00,West,268,0.0,0.0,95,0.00,,,0.48,1.000000,,2013-01-28 15:52:00,
2013-01-28 09:22:00,27.0,25.0,-100.00,WSW,255,0.0,0.0,93,0.00,,,0.48,23.000000,,2013-01-28 16:22:00,
2013-01-28 09:32:00,27.0,25.0,-100.00,WSW,255,0.0,0.0,93,0.00,,,0.48,23.000000,,2013-01-28 16:32:00,
2013-01-28 09:42:00,27.0,25.0,-100.00,WSW,255,0.0,0.0,93,0.00,,,0.48,23.000000,,2013-01-28 16:42:00,
2013-01-28 09:52:00,27.0,25.0,-100.00,WSW,255,0.0,0.0,93,0.00,,,0.48,23.000000,,2013-01-28 16:52:00,
2013-01-28 10:22:00,28.0,26.0,-100.00,West,262,0.0,0.0,93,0.00,,,0.48,50.000000,,2013-01-28 17:22:00,
2013-01-28 10:32:00,28.0,26.0,-100.00,West,262,0.0,0.0,93,0.00,,,0.48,50.000000,,2013-01-28 17:32:00,
2013-01-28 10:42:00,28.0,26.0,-100.00,West,262,0.0,0.0,93,0.00,,,0.48,50.000000,,2013-01-28 17:42:00,
2013-01-28 10:52:00,28.0,26.0,-100.00,West,262,0.0,0.0,93,0.00,,,0.48,50.000000,,2013-01-28 17:52:00,
2013-01-28 11:23:00,29.0,27.0,-100.00,WSW,251,0.0,0.0,92,0.00,,,0.48,67.000000,,2013-01-28 18:23:00,
2013-01-28 11:33:00,29.0,27.0,-100.00,WSW,251,0.0,0.0,92,0.00,,,0.48,67.000000,,2013-01-28 18:33:00,
2013-01-28 11:42:00,29.0,27.0,-100.00,WSW,251,0.0,0.0,92,0.00,,,0.48,67.000000,,2013-01-28 18:42:00,
2013-01-28 11:52:00,29.0,27.0,-100.00,WSW,251,0.0,0.0,92,0.00,,,0.48,67.000000,,2013-01-28 18:52:00,
2013-01-28 12:22:00,29.0,27.0,-100.00,West,265,0.0,0.0,91,0.00,,,0.38,70.000000,,2013-01-28 19:22:00,
2013-01-28 12:32:00,29.0,27.0,-100.00,West,265,0.0,0.0,91,0.00,,,0.38,70.000000,,2013-01-28 19:32:00,
2013-01-28 12:42:00,29.0,27.0,-100.00,West,265,0.0,0.0,91,0.00,,,0.38,70.000000,,2013-01-28 19:42:00,
2013-01-28 12:52:00,29.0,27.0,-100.00,West,265,0.0,0.0,91,0.00,,,0.38,70.000000,,2013-01-28 19:52:00,
2013-01-28 13:22:00,26.0,23.0,-100.00,West,260,0.0,0.0,90,0.00,,,0.14,88.000000,,2013-01-28 20:22:00,
2013-01-28 13:33:00,26.0,23.0,-100.00,West,260,0.0,0.0,90,0.00,,,0.14,88.000000,,2013-01-28 20:33:00,
2013-01-28 13:42:00,26.0,23.0,-100.00,West,260,0.0,0.0,90,0.00,,,0.14,88.000000,,2013-01-28 20:42:00,
2013-01-28 13:52:00,26.0,23.0,-100.00,West,260,0.0,0.0,90,0.00,,,0.14,88.000000,,2013-01-28 20:52:00,
2013-01-28 14:22:00,26.0,23.0,-100.00,SW,221,0.0,0.0,88,0.00,,,0.01,109.000000,,2013-01-28 21:22:00,
2013-01-28 14:33:00,26.0,23.0,-100.00,SW,221,0.0,0.0,88,0.00,,,0.01,109.000000,,2013-01-28 21:33:00,
2013-01-28 14:42:00,26.0,23.0,-100.00,SW,221,0.0,0.0,88,0.00,,,0.01,109.000000,,2013-01-28 21:42:00,
2013-01-28 14:52:00,26.0,23.0,-100.00,SW,221,0.0,0.0,88,0.00,,,0.01,109.000000,,2013-01-28 21:52:00,
2013-01-28 15:22:00,27.0,23.0,-100.00,SW,234,0.0,0.0,86,0.00,,,0.00,123.000000,,2013-01-28 22:22:00,
2013-01-28 15:32:00,27.0,23.0,-100.00,SW,234,0.0,0.0,86,0.00,,,0.00,123.000000,,2013-01-28 22:32:00,
2013-01-28 15:42:00,27.0,23.0,-100.00,SW,234,0.0,0.0,86,0.00,,,0.00,123.000000,,2013-01-28 22:42:00,
2013-01-28 15:52:00,27.0,23.0,-100.00,SW,234,0.0,0.0,86,0.00,,,0.00,123.000000,,2013-01-28 22:52:00,
2013-01-28 16:22:00,26.0,23.0,-100.00,SW,218,0.0,0.0,87,0.00,,,0.00,88.000000,,2013-01-28 23:22:00,
2013-01-28 16:32:00,26.0,23.0,-100.00,SW,218,0.0,0.0,87,0.00,,,0.00,88.000000,,2013-01-28 23:32:00,
2013-01-28 16:42:00,26.0,23.0,-100.00,SW,218,0.0,0.0,87,0.00,,,0.00,88.000000,,2013-01-28 23:42:00,
2013-01-28 16:52:00,26.0,23.0,-100.00,SW,218,0.0,0.0,87,0.00,,,0.00,88.000000,,2013-01-28 23:52:00,
2013-01-28 17:22:00,25.0,22.0,-100.00,SSW,196,0.0,0.0,88,0.00,,,0.00,73.000000,,2013-01-29 00:22:00,
2013-01-28 17:32:00,25.0,22.0,-100.00,SSW,196,0.0,0.0,88,0.00,,,0.00,73.000000,,2013-01-29 00:32:00,
2013-01-28 17:42:00,25.0,22.0,-100.00,SSW,196,0.0,0.0,88,0.00,,,0.00,73.000000,,2013-01-29 00:42:00,
2013-01-28 17:51:00,25.0,22.0,-100.00,SSW,196,0.0,0.0,88,0.00,,,0.00,73.000000,,2013-01-29 00:51:00,
2013-01-28 18:22:00,22.0,18.0,-100.00,SW,216,0.0,0.0,86,0.00,,,0.00,8.000000,,2013-01-29 01:22:00,
2013-01-28 18:32:00,22.0,18.0,-100.00,SW,216,0.0,0.0,86,0.00,,,0.00,8.000000,,2013-01-29 01:32:00,
2013-01-28 18:42:00,22.0,18.0,-100.00,SW,216,0.0,0.0,86,0.00,,,0.00,8.000000,,2013-01-29 01:42:00,
2013-01-28 18:52:00,22.0,18.0,-100.00,SW,216,0.0,0.0,86,0.00,,,0.00,8.000000,,2013-01-29 01:52:00,
2013-01-28 19:21:00,22.0,20.0,-100.00,West,263,0.0,0.0,90,0.00,,,0.00,1.000000,,2013-01-29 02:21:00,
2013-01-28 19:32:00,22.0,20.0,-100.00,West,263,0.0,0.0,90,0.00,,,0.00,1.000000,,2013-01-29 02:32:00,
2013-01-28 19:41:00,22.0,20.0,-100.00,West,263,0.0,0.0,90,0.00,,,0.00,1.000000,,2013-01-29 02:41:00,
2013-01-28 19:52:00,22.0,20.0,-100.00,West,263,0.0,0.0,90,0.00,,,0.00,1.000000,,2013-01-29 02:52:00,
2013-01-28 20:21:00,20.0,17.0,-100.00,West,262,0.0,0.0,89,0.00,,,0.00,1.000000,,2013-01-29 03:21:00,
2013-01-28 20:32:00,20.0,17.0,-100.00,West,262,0.0,0.0,89,0.00,,,0.00,1.000000,,2013-01-29 03:32:00,
2013-01-28 20:42:00,20.0,17.0,-100.00,West,262,0.0,0.0,89,0.00,,,0.00,1.000000,,2013-01-29 03:42:00,
2013-01-28 20:52:00,20.0,17.0,-100.00,West,262,0.0,0.0,89,0.00,,,0.00,1.000000,,2013-01-29 03:52:00,
2013-01-28 21:21:00,17.0,14.0,-100.00,WSW,250,0.0,0.0,88,0.00,,,0.00,1.000000,,2013-01-29 04:21:00,
2013-01-28 21:32:00,17.0,14.0,-100.00,WSW,250,0.0,0.0,88,0.00,,,0.00,1.000000,,2013-01-29 04:32:00,
2013-01-28 21:41:00,17.0,14.0,-100.00,WSW,250,0.0,0.0,88,0.00,,,0.00,1.000000,,2013-01-29 04:41:00,
2013-01-28 21:51:00,17.0,14.0,-100.00,WSW,250,0.0,0.0,88,0.00,,,0.00,1.000000,,2013-01-29 04:51:00,
2013-01-28 22:21:00,17.0,14.0,-100.00,West,261,0.0,0.0,87,0.00,,,0.00,1.000000,,2013-01-29 05:21:00,
2013-01-28 22:32:00,17.0,14.0,-100.00,West,261,0.0,0.0,87,0.00,,,0.00,1.000000,,2013-01-29 05:32:00,
2013-01-28 22:42:00,17.0,14.0,-100.00,West,261,0.0,0.0,87,0.00,,,0.00,1.000000,,2013-01-29 05:42:00,
2013-01-28 22:52:00,17.0,14.0,-100.00,West,261,0.0,0.0,87,0.00,,,0.00,1.000000,,2013-01-29 05:52:00,
2013-01-28 23:21:00,15.0,12.0,-100.00,West,265,0.0,0.0,86,0.00,,,0.00,1.000000,,2013-01-29 06:21:00,
2013-01-28 23:31:00,15.0,12.0,-100.00,West,265,0.0,0.0,86,0.00,,,0.00,1.000000,,2013-01-29 06:31:00,
2013-01-28 23:41:00,15.0,12.0,-100.00,West,265,0.0,0.0,86,0.00,,,0.00,1.000000,,2013-01-29 06:41:00,
2013-01-28 23:52:00,15.0,12.0,-100.00,West,265,0.0,0.0,86,0.00,,,0.00,1.000000,,2013-01-29 06:52:00,